Preview of NWS' New Version of Forecast
This preview is not operational and should not be used for support decisions.

Regional Weather Roundup (RWR)

Issued by National Weather Service (NWS)

                            
000
ASUS45 KABQ 202110
RWRNM 
NEW MEXICO REGIONAL WEATHER ROUNDUP
NATIONAL WEATHER SERVICE ALBUQUERQUE NM
300 PM MDT FRI SEP 20 2019

NOTE: "FAIR" MEANS FEW OR NO CLOUDS BELOW 12,000 FEET AGL WITH NO
       SIGNIFICANT WEATHER OR OBSTRUCTIONS TO VISION.

      THIS PRODUCT IS RELEASED AS TWO VERSIONS.  ONE VERSION NEAR
      THE TOP OF THE HOUR CONTAINING PRELIMINARY DATA FROM ALBUQUERQUE
      AND OTHER STATIONS.  A FINAL VERSION WITH ADDITIONAL DATA IS 
      ISSUED ABOUT 10 MINUTES AFTER THE HOUR.
 
NMZ501-503-504-510>518-202200-
NORTHWEST PLATEAU/NORTHCENTRAL MOUNTAINS
  
CITY           SKY/WX    TMP DP  RH WIND       PRES   REMARKS
FARMINGTON     FAIR      81  18   9 W17G25    29.95F                  
LOS ALAMOS     FAIR      74  30  19 SW16G28   30.10F                  
SANTA FE       FAIR      78  37  22 W14       30.05F                  
TAOS             N/A     77  34  21 SW17G35   30.08F                  

$$
NMZ402-403-502-505>509-202200-
WESTCENTRAL MOUNTAINS/SOUTHWEST MOUNTAINS
  
CITY           SKY/WX    TMP DP  RH WIND       PRES   REMARKS
GALLUP         FAIR      78  27  15 SW28G38   30.05F                  
GRANTS         FAIR      78  29  16 W16G24    30.07F                  
SILVER CITY    PTSUNNY   82  37  20 W13G21    30.06F                  

$$
NMZ407-409-411-412-202200-
SOUTHERN DESERTS
  
CITY           SKY/WX    TMP DP  RH WIND       PRES   REMARKS
DEMING         FAIR      87  46  24 SW14      29.98F                  
LAS CRUCES     FAIR      89  43  19 SW6       29.99F                  
HOLLOMAN AFB   PTSUNNY   83  57  40 NE8       29.96F                  
ALAMOGORDO     FAIR      86  50  28 S9        29.96F                  
T OR C         FAIR      89  30  12 SW13G21   29.97F                  

$$
NMZ519>523-202200-
CENTRAL VALLEYS/CENTRAL HIGHLANDS
  
CITY           SKY/WX    TMP DP  RH WIND       PRES   REMARKS
ALBUQUERQUE    FAIR      83  34  17 S8G26     29.98F                  
DOUBLE EAGLE     N/A     82  34  17 SW14G22   30.02F                  
MORIARTY ARPT  PTSUNNY   81  39  22 SW9G18    30.06F                  
CLINES CORNERS FAIR      77  36  22 SW24G38   30.12F                  
BELEN          FAIR      87  32  14 S9        29.97F                  
SOCORRO        FAIR      89  35  15 S15G22    29.96F                  

$$
NMZ524>526-539-540-202200-
SOUTHCENTRAL MOUNTAINS
  
CITY           SKY/WX    TMP DP  RH WIND       PRES   REMARKS
RUIDOSO        FAIR      75  39  27 SW17G25   30.16S                  

$$
NMZ527>531-202200-
NORTHEAST HIGHLANDS/NORTHEAST PLAINS
  
CITY           SKY/WX    TMP DP  RH WIND       PRES   REMARKS
RATON          FAIR      84  29  13 SW17G29   29.96F                  
CLAYTON        FAIR      79  59  50 S21G32    29.93F                  

$$
NMZ532>537-202200-
EASTCENTRAL PLAINS
  
CITY           SKY/WX    TMP DP  RH WIND       PRES   REMARKS
TUCUMCARI      FAIR      85  61  44 SW17      29.90F                  
CANNON AFB     PTSUNNY   79  64  60 S10G17    29.98F                  
CLOVIS AIRPORT FAIR      79  64  60 S10       29.98F                  

$$
NMZ028-029-033-538-202200-
SOUTHEAST PLAINS
  
CITY           SKY/WX    TMP DP  RH WIND       PRES   REMARKS
ROSWELL        FAIR      86  63  45 S9        29.92F                  
ARTESIA        FAIR      88  63  42 S8G14     29.92F                  
CARLSBAD       FAIR      90  59  35 VRB7      29.88F                  
HOBBS          MOSUNNY   90  59  35 S8G23     29.92F                  


$$